| time (UTC) | temp F | wind direction | speed MPH | gust MPH | rain 1hr in | rain 24hr in | rain mn in | humidity % | barometer mb |
| 20260505173504 | 57 | 25 | 5.0 | 10.0 | 0.00 | 0.00 | 0.00 | 59 | 1012.5 |
| 20260505173003 | 57 | 40 | 6.0 | 12.0 | 0.00 | 0.00 | 0.00 | 58 | 1012.5 |
| 20260505172503 | 57 | 19 | 6.0 | 12.0 | 0.00 | 0.00 | 0.00 | 58 | 1012.6 |
| 20260505172004 | 57 | 32 | 5.0 | 10.0 | 0.00 | 0.00 | 0.00 | 58 | 1012.6 |
| 20260505171503 | 58 | 48 | 7.0 | 13.0 | 0.00 | 0.00 | 0.00 | 56 | 1012.6 |
| 20260505171004 | 58 | 38 | 5.0 | 12.0 | 0.00 | 0.00 | 0.00 | 57 | 1012.6 |
| 20260505170004 | 58 | 61 | 6.0 | 13.0 | 0.00 | 0.00 | 0.00 | 57 | 1012.5 |
| 20260505165503 | 58 | 64 | 5.0 | 14.0 | 0.00 | 0.00 | 0.00 | 57 | 1012.5 |
| 20260505165003 | 58 | 57 | 6.0 | 12.0 | 0.00 | 0.00 | 0.00 | 57 | 1012.5 |
| 20260505164504 | 58 | 63 | 5.0 | 10.0 | 0.00 | 0.00 | 0.00 | 56 | 1012.6 |
| 20260505163503 | 58 | 70 | 3.0 | 10.0 | 0.00 | 0.00 | 0.00 | 56 | 1012.5 |
| 20260505163006 | 58 | 64 | 6.0 | 13.0 | 0.00 | 0.00 | 0.00 | 58 | 1012.5 |
| 20260505162504 | 58 | 39 | 6.0 | 13.0 | 0.00 | 0.00 | 0.00 | 57 | 1012.5 |
| 20260505162004 | 59 | 21 | 5.0 | 12.0 | 0.00 | 0.00 | 0.00 | 58 | 1012.5 |
| 20260505161503 | 59 | 351 | 6.0 | 12.0 | 0.00 | 0.00 | 0.00 | 57 | 1012.6 |
| 20260505161004 | 59 | 47 | 6.0 | 12.0 | 0.00 | 0.00 | 0.00 | 61 | 1012.5 |
| 20260505160503 | 59 | 39 | 5.0 | 14.0 | 0.00 | 0.00 | 0.00 | 59 | 1012.5 |
| 20260505153003 | 59 | 13 | 7.0 | 16.0 | 0.00 | 0.00 | 0.00 | 60 | 1012.7 |
| 20260505152503 | 59 | 350 | 7.0 | 12.0 | 0.00 | 0.00 | 0.00 | 60 | 1012.7 |
| 20260505151004 | 59 | 36 | 6.0 | 13.0 | 0.00 | 0.00 | 0.00 | 60 | 1012.7 |
| 20260505150504 | 59 | 56 | 6.0 | 14.0 | 0.00 | 0.00 | 0.00 | 60 | 1012.6 |
| 20260505140504 | 61 | 18 | 6.0 | 12.0 | 0.00 | 0.00 | 0.00 | 53 | 1012.8 |
| 20260505125003 | 61 | 325 | 6.0 | 13.0 | 0.00 | 0.00 | 0.00 | 52 | 1012.9 |
| 20260505123504 | 62 | 16 | 2.0 | 10.0 | 0.00 | 0.00 | 0.00 | 52 | 1012.8 |
| 20260505121504 | 62 | 7 | 5.0 | 10.0 | 0.00 | 0.00 | 0.00 | 54 | 1012.9 |
| 20260505120005 | 62 | 341 | 9.0 | 14.0 | 0.00 | 0.00 | 0.00 | 53 | 1013.0 |
| 20260505115504 | 61 | 323 | 6.0 | 12.0 | 0.00 | 0.00 | 0.00 | 58 | 1013.0 |
| 20260505115004 | 61 | 345 | 5.0 | 12.0 | 0.00 | 0.00 | 0.00 | 52 | 1013.0 |
| 20260505114004 | 62 | 271 | 2.0 | 8.0 | 0.00 | 0.00 | 0.00 | 51 | 1013.1 |
| 20260505113505 | 62 | 335 | 3.0 | 8.0 | 0.00 | 0.00 | 0.00 | 54 | 1013.1 |
| 20260505113005 | 62 | 33 | 6.0 | 12.0 | 0.00 | 0.00 | 0.00 | 56 | 1013.2 |
| 20260505112504 | 62 | 301 | 6.0 | 10.0 | 0.00 | 0.00 | 0.00 | 52 | 1013.2 |
| 20260505112003 | 62 | 325 | 2.0 | 6.0 | 0.00 | 0.00 | 0.00 | 53 | 1013.2 |
| 20260505111004 | 62 | 332 | 4.0 | 9.0 | 0.00 | 0.00 | 0.00 | 52 | 1013.3 |
| 20260505102004 | 62 | 51 | 5.0 | 12.0 | 0.00 | 0.00 | 0.00 | 54 | 1013.5 |
| 20260505101503 | 62 | 332 | 6.0 | 13.0 | 0.00 | 0.00 | 0.00 | 55 | 1013.5 |
| 20260505101004 | 62 | 298 | 5.0 | 14.0 | 0.00 | 0.00 | 0.00 | 55 | 1013.5 |
| 20260505100504 | 62 | 41 | 5.0 | 10.0 | 0.00 | 0.00 | 0.00 | 58 | 1013.5 |
| 20260505100004 | 62 | 317 | 5.0 | 10.0 | 0.00 | 0.00 | 0.00 | 56 | 1013.5 |
| 20260505095503 | 62 | 36 | 5.0 | 10.0 | 0.00 | 0.00 | 0.00 | 58 | 1013.5 |
| 20260505095004 | 62 | 320 | 6.0 | 12.0 | 0.00 | 0.00 | 0.00 | 58 | 1013.5 |
| 20260505094004 | 61 | 0 | 2.0 | 10.0 | 0.00 | 0.00 | 0.00 | 60 | 1013.6 |
| 20260505093504 | 60 | 84 | 3.0 | 6.0 | 0.00 | 0.00 | 0.00 | 59 | 1013.5 |
| 20260505092503 | 59 | 45 | 5.0 | 9.0 | 0.00 | 0.00 | 0.00 | 63 | 1013.7 |
| 20260505090504 | 58 | 350 | 1.0 | 5.0 | 0.00 | 0.00 | 0.00 | 64 | 1013.8 |
| 20260505090004 | 57 | 72 | 2.0 | 7.0 | 0.00 | 0.00 | 0.00 | 64 | 1013.8 |
| 20260505085503 | 57 | 76 | 3.0 | 5.0 | 0.00 | 0.00 | 0.00 | 65 | 1013.8 |
| 20260505085004 | 57 | 77 | 5.0 | 8.0 | 0.00 | 0.00 | 0.00 | 64 | 1013.7 |
| 20260505084503 | 56 | 81 | 3.0 | 6.0 | 0.00 | 0.00 | 0.00 | 66 | 1013.8 |
| 20260505084004 | 56 | 40 | 5.0 | 8.0 | 0.00 | 0.00 | 0.00 | 67 | 1013.8 |
| 20260505083504 | 55 | 62 | 2.0 | 8.0 | 0.00 | 0.00 | 0.00 | 67 | 1013.9 |
| 20260505083004 | 55 | 37 | 4.0 | 9.0 | 0.00 | 0.00 | 0.00 | 67 | 1013.9 |
| 20260505082504 | 55 | 11 | 3.0 | 6.0 | 0.00 | 0.00 | 0.00 | 68 | 1013.9 |
| 20260505082004 | 54 | 32 | 4.0 | 8.0 | 0.00 | 0.00 | 0.00 | 67 | 1014.0 |
| 20260505081505 | 54 | 4 | 5.0 | 13.0 | 0.00 | 0.00 | 0.00 | 66 | 1013.9 |
| 20260505081003 | 55 | 12 | 4.0 | 9.0 | 0.00 | 0.00 | 0.00 | 65 | 1013.9 |
| 20260505080503 | 55 | 17 | 3.0 | 6.0 | 0.00 | 0.00 | 0.00 | 65 | 1013.9 |
| 20260505075503 | 55 | 13 | 5.0 | 9.0 | 0.00 | 0.00 | 0.00 | 64 | 1013.9 |
| 20260505074505 | 56 | 31 | 3.0 | 9.0 | 0.00 | 0.00 | 0.00 | 63 | 1013.9 |
| 20260505074004 | 56 | 49 | 4.0 | 12.0 | 0.00 | 0.00 | 0.00 | 64 | 1013.8 |
| 20260505073504 | 56 | 86 | 5.0 | 9.0 | 0.00 | 0.00 | 0.00 | 65 | 1013.8 |
| 20260505072503 | 55 | 52 | 4.0 | 9.0 | 0.00 | 0.00 | 0.00 | 66 | 1013.9 |
| 20260505072004 | 55 | 59 | 4.0 | 10.0 | 0.00 | 0.00 | 0.00 | 68 | 1014.0 |
| 20260505071503 | 54 | 33 | 3.0 | 10.0 | 0.00 | 0.00 | 0.00 | 69 | 1014.0 |
| 20260505071004 | 53 | 50 | 5.0 | 10.0 | 0.00 | 0.00 | 0.00 | 68 | 1013.9 |
| 20260505070504 | 52 | 57 | 3.0 | 9.0 | 0.00 | 0.00 | 0.00 | 70 | 1013.9 |
| 20260505065503 | 51 | 68 | 5.0 | 10.0 | 0.00 | 0.00 | 0.00 | 70 | 1013.9 |
| 20260505065003 | 51 | 38 | 2.0 | 7.0 | 0.00 | 0.00 | 0.00 | 71 | 1013.9 |
| 20260505064004 | 51 | 51 | 2.0 | 9.0 | 0.00 | 0.00 | 0.00 | 72 | 1013.9 |
| 20260505063503 | 51 | 81 | 2.0 | 7.0 | 0.00 | 0.00 | 0.00 | 73 | 1014.0 |
| 20260505063004 | 51 | 69 | 3.0 | 5.0 | 0.00 | 0.00 | 0.00 | 74 | 1013.9 |
| 20260505062504 | 51 | 68 | 2.0 | 3.0 | 0.00 | 0.00 | 0.00 | 73 | 1013.9 |
| 20260505062004 | 51 | 85 | 2.0 | 3.0 | 0.00 | 0.01 | 0.00 | 73 | 1013.9 |
| 20260505061504 | 51 | 76 | 1.0 | 3.0 | 0.00 | 0.02 | 0.00 | 73 | 1013.9 |
| 20260505061003 | 51 | 74 | 2.0 | 3.0 | 0.00 | 0.03 | 0.00 | 74 | 1013.9 |
| 20260505060503 | 51 | 71 | 2.0 | 3.0 | 0.00 | 0.05 | 0.00 | 74 | 1013.9 |
| 20260505055003 | 50 | 53 | 2.0 | 6.0 | 0.00 | 0.13 | 0.00 | 74 | 1013.9 |
| 20260505053504 | 50 | 49 | 2.0 | 8.0 | 0.00 | 0.13 | 0.00 | 78 | 1013.8 |
| 20260505053003 | 50 | 38 | 3.0 | 8.0 | 0.00 | 0.13 | 0.00 | 79 | 1013.9 |
| 20260505052504 | 50 | 66 | 2.0 | 5.0 | 0.00 | 0.13 | 0.00 | 80 | 1013.9 |
| 20260505052003 | 50 | 70 | 2.0 | 3.0 | 0.00 | 0.13 | 0.00 | 80 | 1013.8 |
| 20260505051504 | 50 | 70 | 1.0 | 3.0 | 0.00 | 0.13 | 0.00 | 80 | 1013.8 |
| 20260505051003 | 50 | 70 | 2.0 | 5.0 | 0.00 | 0.13 | 0.00 | 80 | 1013.8 |
| 20260505041504 | 51 | 66 | 3.0 | 3.0 | 0.00 | 0.13 | 0.00 | 84 | 1013.8 |
| 20260505041004 | 51 | 58 | 3.0 | 5.0 | 0.00 | 0.13 | 0.00 | 84 | 1013.8 |
| 20260505040504 | 51 | 39 | 2.0 | 6.0 | 0.00 | 0.13 | 0.00 | 84 | 1013.8 |
| 20260505035504 | 51 | 39 | 4.0 | 7.0 | 0.00 | 0.13 | 0.00 | 85 | 1013.7 |
| 20260505035003 | 51 | 53 | 2.0 | 6.0 | 0.00 | 0.13 | 0.00 | 85 | 1013.8 |
| 20260505034504 | 51 | 46 | 2.0 | 5.0 | 0.00 | 0.13 | 0.00 | 85 | 1013.8 |
| 20260505034003 | 51 | 18 | 1.0 | 3.0 | 0.00 | 0.13 | 0.00 | 85 | 1013.8 |
| 20260505033503 | 51 | 16 | 2.0 | 3.0 | 0.00 | 0.13 | 0.00 | 85 | 1013.8 |
| 20260505033004 | 51 | 14 | 3.0 | 3.0 | 0.00 | 0.13 | 0.00 | 86 | 1013.8 |
| 20260505032004 | 51 | 72 | 1.0 | 3.0 | 0.00 | 0.13 | 0.00 | 86 | 1013.8 |
| 20260505031504 | 51 | 72 | 1.0 | 3.0 | 0.00 | 0.13 | 0.00 | 86 | 1013.8 |
| 20260505031003 | 51 | 72 | 1.0 | 3.0 | 0.00 | 0.13 | 0.00 | 86 | 1013.9 |
| 20260505030505 | 51 | 73 | 1.0 | 2.0 | 0.00 | 0.13 | 0.00 | 86 | 1013.9 |
| 20260505030004 | 51 | 73 | 2.0 | 3.0 | 0.00 | 0.13 | 0.00 | 86 | 1014.0 |
| 20260505025504 | 51 | 41 | 1.0 | 5.0 | 0.00 | 0.13 | 0.00 | 86 | 1013.9 |
| 20260505025004 | 51 | 38 | 1.0 | 3.0 | 0.00 | 0.13 | 0.00 | 86 | 1013.9 |
| 20260505024503 | 51 | 37 | 2.0 | 3.0 | 0.00 | 0.13 | 0.00 | 86 | 1013.9 |
| 20260505024004 | 51 | 41 | 2.0 | 3.0 | 0.00 | 0.13 | 0.00 | 86 | 1013.9 |
| 20260505023504 | 51 | 42 | 2.0 | 3.0 | 0.00 | 0.13 | 0.00 | 86 | 1013.9 |
| 20260505023004 | 51 | 40 | 1.0 | 3.0 | 0.00 | 0.13 | 0.00 | 86 | 1013.9 |
| 20260505022003 | 51 | 36 | 2.0 | 3.0 | 0.00 | 0.13 | 0.00 | 86 | 1014.0 |
| 20260505021504 | 51 | 35 | 1.0 | 3.0 | 0.00 | 0.13 | 0.00 | 86 | 1013.9 |
| 20260505021004 | 51 | 31 | 2.0 | 5.0 | 0.00 | 0.13 | 0.00 | 85 | 1013.8 |
| 20260505020503 | 51 | 34 | 1.0 | 5.0 | 0.00 | 0.13 | 0.00 | 85 | 1013.8 |
| 20260505020004 | 51 | 50 | 1.0 | 3.0 | 0.00 | 0.13 | 0.00 | 85 | 1013.8 |
| 20260505015503 | 51 | 51 | 2.0 | 3.0 | 0.00 | 0.13 | 0.00 | 85 | 1013.9 |
| 20260505015004 | 51 | 53 | 1.0 | 3.0 | 0.00 | 0.13 | 0.00 | 84 | 1013.9 |
| 20260505014503 | 51 | 57 | 2.0 | 3.0 | 0.00 | 0.13 | 0.00 | 84 | 1013.9 |
| 20260505014004 | 51 | 57 | 1.0 | 3.0 | 0.00 | 0.13 | 0.00 | 84 | 1013.9 |
| 20260505013004 | 51 | 44 | 3.0 | 8.0 | 0.00 | 0.13 | 0.00 | 84 | 1014.1 |
| 20260505012503 | 51 | 55 | 2.0 | 3.0 | 0.00 | 0.13 | 0.00 | 83 | 1014.2 |
| 20260505011504 | 51 | 29 | 1.0 | 3.0 | 0.00 | 0.13 | 0.00 | 83 | 1014.2 |
| 20260505010504 | 52 | 45 | 1.0 | 3.0 | 0.00 | 0.13 | 0.00 | 84 | 1014.1 |
| 20260505010004 | 52 | 42 | 3.0 | 5.0 | 0.00 | 0.13 | 0.00 | 84 | 1014.1 |
| 20260505005503 | 52 | 65 | 2.0 | 5.0 | 0.00 | 0.13 | 0.00 | 84 | 1014.1 |
| 20260505005004 | 52 | 65 | 2.0 | 3.0 | 0.00 | 0.13 | 0.00 | 84 | 1014.2 |
| 20260505004505 | 52 | 68 | 2.0 | 5.0 | 0.00 | 0.13 | 0.00 | 84 | 1014.2 |
| 20260505003503 | 52 | 69 | 1.0 | 6.0 | 0.00 | 0.13 | 0.00 | 85 | 1014.3 |
| 20260505003003 | 52 | 92 | 0.0 | 0.0 | 0.00 | 0.13 | 0.00 | 85 | 1014.3 |
| 20260505002004 | 52 | 92 | 0.0 | 0.0 | 0.00 | 0.13 | 0.00 | 85 | 1014.3 |
| 20260505001503 | 52 | 92 | 0.0 | 0.0 | 0.00 | 0.13 | 0.00 | 85 | 1014.4 |
| 20260505001004 | 52 | 92 | 0.0 | 0.0 | 0.00 | 0.13 | 0.00 | 85 | 1014.4 |
| 20260505000503 | 52 | 92 | 0.0 | 0.0 | 0.00 | 0.13 | 0.00 | 85 | 1014.5 |
| 20260505000004 | 52 | 92 | 0.0 | 0.0 | 0.00 | 0.13 | 0.00 | 85 | 1014.5 |
| 20260504235503 | 52 | 92 | 0.0 | 0.0 | 0.00 | 0.13 | 0.00 | 85 | 1014.5 |
| 20260504235004 | 52 | 92 | 0.0 | 0.0 | 0.00 | 0.13 | 0.00 | 85 | 1014.6 |
| 20260504234504 | 52 | 92 | 0.0 | 0.0 | 0.00 | 0.13 | 0.00 | 86 | 1014.7 |
| 20260504234004 | 52 | 92 | 0.0 | 0.0 | 0.00 | 0.13 | 0.00 | 85 | 1014.6 |
| 20260504233504 | 52 | 92 | 0.0 | 0.0 | 0.00 | 0.13 | 0.00 | 85 | 1014.6 |
| 20260504233003 | 52 | 92 | 0.0 | 0.0 | 0.00 | 0.13 | 0.00 | 85 | 1014.6 |
| 20260504232504 | 52 | 92 | 0.0 | 0.0 | 0.00 | 0.13 | 0.00 | 85 | 1014.6 |
| 20260504232004 | 52 | 92 | 0.0 | 3.0 | 0.00 | 0.13 | 0.00 | 85 | 1014.7 |
| 20260504231503 | 52 | 92 | 0.0 | 1.0 | 0.00 | 0.13 | 0.00 | 85 | 1014.6 |
| 20260504230503 | 52 | 92 | 1.0 | 2.0 | 0.00 | 0.13 | 0.00 | 84 | 1014.6 |
| 20260504230005 | 52 | 92 | 1.0 | 3.0 | 0.00 | 0.13 | 0.00 | 84 | 1014.6 |
| 20260504225504 | 52 | 92 | 1.0 | 2.0 | 0.00 | 0.13 | 0.13 | 84 | 1014.5 |
| 20260504225003 | 52 | 92 | 1.0 | 3.0 | 0.00 | 0.13 | 0.13 | 84 | 1014.5 |
| 20260504224504 | 53 | 92 | 1.0 | 3.0 | 0.00 | 0.13 | 0.13 | 84 | 1014.4 |
| 20260504224004 | 53 | 92 | 3.0 | 6.0 | 0.00 | 0.13 | 0.13 | 84 | 1014.5 |
| 20260504223503 | 53 | 97 | 2.0 | 6.0 | 0.00 | 0.13 | 0.13 | 84 | 1014.5 |
| 20260504223004 | 53 | 98 | 1.0 | 3.0 | 0.00 | 0.13 | 0.13 | 84 | 1014.6 |
| 20260504222504 | 52 | 98 | 1.0 | 3.0 | 0.00 | 0.13 | 0.13 | 85 | 1014.6 |
| 20260504222004 | 52 | 98 | 1.0 | 3.0 | 0.00 | 0.13 | 0.13 | 84 | 1014.6 |
| 20260504221504 | 52 | 98 | 1.0 | 2.0 | 0.00 | 0.13 | 0.13 | 84 | 1014.5 |
| 20260504221003 | 53 | 98 | 0.0 | 2.0 | 0.00 | 0.13 | 0.13 | 84 | 1014.6 |
| 20260504220004 | 53 | 98 | 0.0 | 1.0 | 0.00 | 0.13 | 0.13 | 84 | 1014.6 |
| 20260504215503 | 53 | 98 | 1.0 | 2.0 | 0.00 | 0.13 | 0.13 | 84 | 1014.6 |
| 20260504215004 | 53 | 98 | 2.0 | 3.0 | 0.00 | 0.13 | 0.13 | 83 | 1014.6 |
| 20260504214503 | 53 | 98 | 1.0 | 3.0 | 0.00 | 0.13 | 0.13 | 83 | 1014.5 |
| 20260504214004 | 53 | 98 | 2.0 | 3.0 | 0.00 | 0.13 | 0.13 | 84 | 1014.5 |
| 20260504213503 | 53 | 98 | 1.0 | 3.0 | 0.00 | 0.13 | 0.13 | 84 | 1014.5 |
| 20260504213004 | 53 | 98 | 0.0 | 0.0 | 0.00 | 0.13 | 0.13 | 84 | 1014.6 |
| 20260504212503 | 53 | 98 | 0.0 | 0.0 | 0.00 | 0.13 | 0.13 | 83 | 1014.6 |
| 20260504212004 | 53 | 98 | 0.0 | 0.0 | 0.00 | 0.13 | 0.13 | 83 | 1014.6 |
| 20260504211503 | 53 | 98 | 0.0 | 0.0 | 0.00 | 0.13 | 0.13 | 83 | 1014.6 |
| 20260504211004 | 53 | 98 | 1.0 | 1.0 | 0.00 | 0.13 | 0.13 | 83 | 1014.6 |
| 20260504210504 | 53 | 98 | 0.0 | 0.0 | 0.00 | 0.13 | 0.13 | 82 | 1014.6 |
| 20260504210005 | 53 | 98 | 0.0 | 0.0 | 0.00 | 0.13 | 0.13 | 82 | 1014.6 |
| 20260504205503 | 53 | 98 | 1.0 | 2.0 | 0.00 | 0.13 | 0.13 | 81 | 1014.6 |
| 20260504204503 | 54 | 98 | 1.0 | 2.0 | 0.00 | 0.13 | 0.13 | 80 | 1014.5 |
| 20260504204004 | 54 | 98 | 1.0 | 2.0 | 0.00 | 0.13 | 0.13 | 80 | 1014.5 |
| 20260504203503 | 54 | 98 | 2.0 | 3.0 | 0.00 | 0.13 | 0.13 | 80 | 1014.5 |
| 20260504203003 | 54 | 98 | 1.0 | 3.0 | 0.00 | 0.13 | 0.13 | 80 | 1014.4 |
| 20260504202504 | 55 | 98 | 1.0 | 3.0 | 0.00 | 0.13 | 0.13 | 79 | 1014.4 |
| 20260504202004 | 55 | 98 | 0.0 | 0.0 | 0.00 | 0.13 | 0.13 | 79 | 1014.4 |
| 20260504200503 | 56 | 98 | 1.0 | 2.0 | 0.00 | 0.13 | 0.13 | 78 | 1014.2 |
| 20260504200003 | 56 | 98 | 1.0 | 2.0 | 0.00 | 0.13 | 0.13 | 77 | 1014.2 |
| 20260504195503 | 56 | 98 | 1.0 | 3.0 | 0.00 | 0.13 | 0.13 | 76 | 1014.0 |
| 20260504195004 | 57 | 98 | 0.0 | 3.0 | 0.00 | 0.13 | 0.13 | 76 | 1014.0 |
| 20260504194504 | 57 | 98 | 1.0 | 3.0 | 0.00 | 0.13 | 0.13 | 76 | 1014.0 |
| 20260504193503 | 58 | 98 | 2.0 | 3.0 | 0.00 | 0.13 | 0.13 | 75 | 1013.9 |
| 20260504193005 | 58 | 99 | 2.0 | 3.0 | 0.00 | 0.13 | 0.13 | 74 | 1013.9 |
| 20260504192504 | 58 | 99 | 2.0 | 7.0 | 0.00 | 0.13 | 0.13 | 73 | 1013.9 |
| 20260504192004 | 58 | 106 | 2.0 | 3.0 | 0.00 | 0.13 | 0.13 | 73 | 1013.8 |
| 20260504191503 | 58 | 111 | 1.0 | 3.0 | 0.00 | 0.13 | 0.13 | 72 | 1013.7 |
| 20260504191004 | 59 | 111 | 2.0 | 6.0 | 0.00 | 0.13 | 0.13 | 72 | 1013.7 |
| 20260504190504 | 59 | 112 | 1.0 | 2.0 | 0.00 | 0.13 | 0.13 | 71 | 1013.7 |
| 20260504190004 | 59 | 112 | 2.0 | 3.0 | 0.00 | 0.13 | 0.13 | 71 | 1013.6 |
| 20260504185503 | 59 | 112 | 2.0 | 3.0 | 0.00 | 0.13 | 0.13 | 70 | 1013.6 |
| 20260504185004 | 59 | 113 | 2.0 | 6.0 | 0.00 | 0.13 | 0.13 | 70 | 1013.6 |
| 20260504184503 | 60 | 114 | 3.0 | 8.0 | 0.00 | 0.13 | 0.13 | 69 | 1013.5 |
| 20260504183504 | 60 | 96 | 3.0 | 8.0 | 0.00 | 0.13 | 0.13 | 69 | 1013.5 |
| 20260504182504 | 61 | 98 | 3.0 | 9.0 | 0.00 | 0.13 | 0.13 | 68 | 1013.3 |
| 20260504182004 | 61 | 103 | 6.0 | 10.0 | 0.00 | 0.13 | 0.13 | 68 | 1013.3 |
| 20260504181004 | 62 | 92 | 5.0 | 12.0 | 0.00 | 0.13 | 0.13 | 67 | 1013.3 |
| 20260504180504 | 62 | 98 | 3.0 | 8.0 | 0.00 | 0.13 | 0.13 | 67 | 1013.2 |
| 20260504180003 | 63 | 83 | 5.0 | 8.0 | 0.00 | 0.13 | 0.13 | 66 | 1013.2 |
| 20260504175504 | 63 | 85 | 4.0 | 7.0 | 0.00 | 0.14 | 0.13 | 65 | 1013.2 |
| 20260504175004 | 63 | 96 | 5.0 | 9.0 | 0.00 | 0.16 | 0.13 | 65 | 1013.2 |
| 20260504174503 | 64 | 109 | 6.0 | 9.0 | 0.00 | 0.17 | 0.13 | 65 | 1013.2 |
| 20260504174004 | 64 | 96 | 4.0 | 8.0 | 0.00 | 0.20 | 0.13 | 65 | 1013.2 |